Dickinson, ND

10:09 AM MDT on July 26, 2017 (GMT -0600)
Dickinson Municipal

Weather History for KDIK - December, 2012

Change the Weather History Date:

Monday, December 31, 2012

  Actual Average Record
Temperature  
Mean Temperature 14 °F 16 °F  
Max Temperature 16 °F 26 °F 57 °F (1963)
Min Temperature 12 °F 6 °F -30 °F (1918)
Degree Days  
Heating Degree Days 51 49  
Month to date heating degree days 1467 1459  
Since 1 July heating degree days 3391 3537  
Moisture  
Dew Point 11 °F    
Average Humidity 86    
Maximum Humidity 92    
Minimum Humidity 80    
Precipitation  
Precipitation T in 0.01 in 0.23 in (1975)
Month to date precipitation 0.26 0.24  
Year to date precipitation 10.41 15.77  
Sea Level Pressure  
Sea Level Pressure 30.08 in    
Wind  
Wind Speed 6 mph (SE)    
Max Wind Speed 12 mph    
Max Gust Speed 13 mph    
Visibility 6 miles    
Events Fog , Snow    
T = Trace of Precipitation, MM = Missing Value Source: NWS Daily Summary

Daily Weather History Graph

Daily Weather History Graph

Search for Another Location

Airport or City:

Trip Planner

Search our weather history database for the weather conditions in past years. The results will help you decide how hot, cold, wet, or windy it might be!

Date:

Astronomy

Dec. 31, 2012 Rise Set
Actual Time 7:36 AM MST 4:12 PM MST
Civil Twilight 7:01 AM MST 4:48 PM MST
Nautical Twilight 6:22 AM MST 5:26 PM MST
Astronomical Twilight 5:45 AM MST 6:03 PM MST
Moon 8:00 PM MST (12/31) 9:06 AM MST (12/31)
Length of Visible Light 9h 46m
Length of Day
8h 36m
Waning Gibbous, 90% of the Moon is Illuminated
Dec 31
Waning Gibbous
Jan 4
Last Quarter
Jan 11
New
Jan 18
First Quarter
Jan 26
Full

Hourly Weather History & Observations

Time (MST) Temp. Windchill Dew Point Humidity Pressure Visibility Wind Dir Wind Speed Gust Speed Precip Events Conditions
12:56 AM 16.0 °F - 12.0 °F 84% 30.16 in 10.0 mi Calm Calm - N/A   Overcast
1:56 AM 15.1 °F 7.7 °F 10.9 °F 84% 30.18 in 10.0 mi East 4.6 mph - N/A   Overcast
2:56 AM 15.1 °F 9.4 °F 10.9 °F 84% 30.18 in 10.0 mi East 3.5 mph - N/A   Overcast
3:17 AM 14.0 °F 6.5 °F 10.4 °F 86% 30.05 in 10.0 mi ESE 4.6 mph - N/A   Overcast
3:56 AM 15.1 °F 7.7 °F 10.0 °F 80% 30.18 in 10.0 mi East 4.6 mph - 0.00 in   Overcast
4:56 AM 14.0 °F 6.5 °F 10.0 °F 84% 30.17 in 6.0 mi East 4.6 mph - 0.00 in Snow Light Snow
5:56 AM 12.9 °F 3.8 °F 10.0 °F 88% 30.18 in 8.0 mi ESE 5.8 mph - 0.00 in Snow Light Snow
6:40 AM 14.0 °F 5.1 °F 10.4 °F 86% 30.04 in 8.0 mi SE 5.8 mph - 0.00 in Snow Light Snow
6:56 AM 14.0 °F 5.1 °F 10.0 °F 84% 30.17 in 9.0 mi SE 5.8 mph - 0.00 in Snow Light Snow
7:56 AM 14.0 °F 6.5 °F 10.9 °F 88% 30.16 in 8.0 mi SE 4.6 mph - 0.00 in Snow Light Snow
8:07 AM 14.0 °F 5.1 °F 10.4 °F 86% 30.02 in 2.0 mi SE 5.8 mph - 0.00 in Snow Light Snow
8:16 AM 14.0 °F 3.9 °F 10.4 °F 86% 30.02 in 7.0 mi SSE 6.9 mph - 0.00 in Snow Light Snow
8:56 AM 14.0 °F 3.9 °F 10.9 °F 88% 30.17 in 6.0 mi SE 6.9 mph - 0.00 in Snow Light Snow
9:31 AM 15.8 °F 6.1 °F 12.2 °F 86% 30.04 in 2.0 mi SSE 6.9 mph - 0.00 in Snow Light Snow
9:38 AM 15.8 °F 4.2 °F 10.4 °F 79% 30.04 in 1.8 mi SSE 9.2 mph - 0.00 in Snow Light Snow
9:56 AM 15.1 °F 5.2 °F 10.9 °F 84% 30.17 in 1.8 mi SE 6.9 mph - 0.00 in Snow Light Snow
10:23 AM 15.8 °F 5.1 °F 10.4 °F 79% 30.05 in 0.8 mi SSE 8.1 mph - 0.00 in Snow Light Snow
10:46 AM 15.8 °F 5.1 °F 12.2 °F 86% 30.04 in 0.5 mi SSE 8.1 mph - 0.00 in Fog , Snow Snow
10:56 AM 15.1 °F 3.3 °F 12.0 °F 88% 30.17 in 0.8 mi SSE 9.2 mph - 0.00 in Snow Light Snow
11:09 AM 15.8 °F 2.7 °F 12.2 °F 86% 30.03 in 0.8 mi SSE 11.5 mph - 0.00 in Snow Light Snow
11:25 AM 15.8 °F 2.7 °F 10.4 °F 79% 30.02 in 1.0 mi SSE 11.5 mph - 0.00 in Snow Light Snow
11:56 AM 15.1 °F 3.3 °F 10.9 °F 84% 30.15 in 1.0 mi SE 9.2 mph - 0.00 in Snow Light Snow
12:47 PM 15.8 °F 4.2 °F 10.4 °F 79% 29.99 in 2.0 mi SSE 9.2 mph - 0.00 in Snow Light Snow
12:56 PM 15.1 °F 3.3 °F 10.9 °F 84% 30.13 in 2.0 mi SE 9.2 mph - 0.00 in Snow Light Snow
1:12 PM 15.8 °F 5.1 °F 12.2 °F 86% 29.99 in 1.8 mi SE 8.1 mph - 0.00 in Snow Light Snow
1:25 PM 15.8 °F 5.1 °F 12.2 °F 86% 29.98 in 1.8 mi SE 8.1 mph - 0.00 in Snow Light Snow
1:37 PM 15.8 °F 4.2 °F 10.4 °F 79% 29.98 in 2.0 mi SE 9.2 mph - 0.00 in Snow Light Snow
1:49 PM 15.8 °F 4.2 °F 12.2 °F 86% 29.98 in 2.5 mi SSE 9.2 mph - 0.00 in Snow Light Snow
1:56 PM 16.0 °F 3.6 °F 12.0 °F 84% 30.12 in 2.0 mi SSE 10.4 mph - 0.00 in Snow Light Snow
2:17 PM 15.8 °F 4.2 °F 10.4 °F 79% 29.98 in 3.0 mi SSE 9.2 mph - 0.00 in Snow Light Snow
2:26 PM 15.8 °F 5.1 °F 12.2 °F 86% 29.98 in 4.0 mi SSE 8.1 mph - 0.00 in Snow Light Snow
2:56 PM 15.1 °F 4.2 °F 10.9 °F 84% 30.13 in 7.0 mi SE 8.1 mph - 0.00 in   Overcast
3:38 PM 15.8 °F 7.2 °F 10.4 °F 79% 29.99 in 9.0 mi SE 5.8 mph - N/A   Overcast
3:51 PM 15.8 °F 5.1 °F 10.4 °F 79% 29.99 in 9.0 mi SE 8.1 mph - N/A   Overcast
4:54 PM 15.8 °F 7.2 °F 10.4 °F 79% 30.00 in 10.0 mi SSE 5.8 mph - N/A   Overcast
4:56 PM 15.1 °F 6.4 °F 10.9 °F 84% 30.14 in 10.0 mi SSE 5.8 mph - N/A   Overcast
5:49 PM 15.8 °F 7.2 °F 12.2 °F 86% 30.00 in 10.0 mi SE 5.8 mph - N/A   Overcast
5:56 PM 15.1 °F 6.4 °F 12.0 °F 88% 30.14 in 10.0 mi SE 5.8 mph - N/A   Overcast
6:56 PM 15.1 °F 6.4 °F 12.0 °F 88% 30.14 in 10.0 mi SE 5.8 mph - N/A   Overcast
7:56 PM 15.1 °F 6.4 °F 12.0 °F 88% 30.14 in 10.0 mi SE 5.8 mph - N/A   Overcast
8:12 PM 15.8 °F 5.1 °F 12.2 °F 86% 30.00 in 10.0 mi SSE 8.1 mph - N/A   Overcast
8:56 PM 14.0 °F 3.9 °F 10.9 °F 88% 30.15 in 10.0 mi South 6.9 mph - N/A   Overcast
9:15 PM 14.0 °F 5.1 °F 10.4 °F 86% 30.00 in 10.0 mi SSW 5.8 mph - N/A   Overcast
9:56 PM 14.0 °F 6.5 °F 10.0 °F 84% 30.15 in 10.0 mi SSW 4.6 mph - N/A   Overcast
10:56 PM 14.0 °F 8.2 °F 10.9 °F 88% 30.16 in 10.0 mi SSW 3.5 mph - N/A   Overcast
11:56 PM 12.9 °F 3.8 °F 10.0 °F 88% 30.16 in 10.0 mi West 5.8 mph - N/A   Mostly Cloudy